contact:dominique.lefevre@mio.osupytheas.fr, maurice.libes@osupytheas.fr, didier.mallarino@osupytheas.fr
Project:EMSO http://www.emso-fr.org/EMSO-France
Depth: 2436.0 m
Title:EMSO Ligure Ouest : Data MII capteur OXYGEN
DateTime,Latitude,Longitude,Optode-Type,Optode_Serial,Oxygen,Saturation_Oxygen,Temperature
DateTime,Latitude,Longitude,Optode-Type,Optode_Serial,µmol.l-1,%,degC
2017-11-10T00:01:18,42.805,6.029,4330,1995,198.165,60.599,13.286
2017-11-10T00:04:18,42.805,6.029,4330,1995,198.148,60.593,13.286
2017-11-10T00:07:18,42.805,6.029,4330,1995,198.080,60.572,13.286
2017-11-10T00:10:18,42.805,6.029,4330,1995,198.061,60.567,13.286
2017-11-10T00:13:18,42.805,6.029,4330,1995,198.131,60.588,13.286
2017-11-10T00:16:18,42.805,6.029,4330,1995,198.178,60.602,13.286
2017-11-10T00:19:18,42.805,6.029,4330,1995,198.114,60.583,13.286
2017-11-10T00:22:18,42.805,6.029,4330,1995,198.211,60.613,13.286
2017-11-10T00:25:18,42.805,6.029,4330,1995,198.274,60.632,13.286
2017-11-10T00:28:18,42.805,6.029,4330,1995,198.253,60.625,13.286
2017-11-10T00:31:18,42.805,6.029,4330,1995,198.270,60.631,13.286
2017-11-10T00:34:18,42.805,6.029,4330,1995,198.393,60.668,13.286
2017-11-10T00:37:18,42.805,6.029,4330,1995,198.304,60.641,13.286
2017-11-10T00:40:18,42.805,6.029,4330,1995,198.314,60.644,13.286
2017-11-10T00:43:18,42.805,6.029,4330,1995,198.400,60.670,13.286
2017-11-10T00:46:18,42.805,6.029,4330,1995,198.377,60.663,13.286
2017-11-10T00:49:18,42.805,6.029,4330,1995,198.368,60.660,13.286
2017-11-10T00:52:18,42.805,6.029,4330,1995,198.398,60.670,13.286
2017-11-10T00:55:18,42.805,6.029,4330,1995,198.442,60.683,13.286
2017-11-10T00:58:18,42.805,6.029,4330,1995,198.476,60.694,13.286
2017-11-10T01:01:18,42.805,6.029,4330,1995,198.483,60.696,13.286
2017-11-10T01:04:18,42.805,6.029,4330,1995,198.519,60.707,13.286
2017-11-10T01:07:18,42.805,6.029,4330,1995,198.518,60.706,13.286
2017-11-10T01:10:18,42.805,6.029,4330,1995,198.586,60.727,13.286
2017-11-10T01:13:18,42.805,6.029,4330,1995,198.587,60.727,13.286
2017-11-10T01:16:18,42.805,6.029,4330,1995,198.542,60.714,13.286
2017-11-10T01:19:18,42.805,6.029,4330,1995,198.650,60.747,13.286
2017-11-10T01:22:18,42.805,6.029,4330,1995,198.597,60.731,13.286
2017-11-10T01:25:18,42.805,6.029,4330,1995,198.629,60.740,13.285
2017-11-10T01:28:18,42.805,6.029,4330,1995,198.613,60.735,13.286
2017-11-10T01:31:18,42.805,6.029,4330,1995,198.620,60.738,13.286
2017-11-10T01:34:18,42.805,6.029,4330,1995,198.620,60.737,13.286
2017-11-10T01:37:18,42.805,6.029,4330,1995,198.642,60.744,13.286
2017-11-10T01:40:18,42.805,6.029,4330,1995,198.625,60.739,13.286
2017-11-10T01:43:18,42.805,6.029,4330,1995,198.651,60.747,13.286
2017-11-10T01:46:18,42.805,6.029,4330,1995,198.666,60.752,13.286
2017-11-10T01:49:18,42.805,6.029,4330,1995,198.725,60.769,13.286
2017-11-10T01:52:18,42.805,6.029,4330,1995,198.689,60.758,13.285
2017-11-10T01:55:18,42.805,6.029,4330,1995,198.710,60.765,13.286
2017-11-10T01:58:18,42.805,6.029,4330,1995,198.708,60.764,13.286
2017-11-10T02:01:18,42.805,6.029,4330,1995,198.699,60.762,13.286
2017-11-10T02:04:18,42.805,6.029,4330,1995,198.683,60.757,13.286
2017-11-10T02:07:18,42.805,6.029,4330,1995,198.675,60.754,13.286
2017-11-10T02:10:18,42.805,6.029,4330,1995,198.680,60.756,13.286
2017-11-10T02:13:18,42.805,6.029,4330,1995,198.673,60.754,13.286
2017-11-10T02:16:18,42.805,6.029,4330,1995,198.702,60.763,13.286
2017-11-10T02:19:18,42.805,6.029,4330,1995,198.755,60.779,13.286
2017-11-10T02:22:18,42.805,6.029,4330,1995,198.719,60.768,13.286
2017-11-10T02:25:18,42.805,6.029,4330,1995,198.708,60.765,13.286
2017-11-10T02:28:18,42.805,6.029,4330,1995,198.726,60.770,13.286
2017-11-10T02:31:18,42.805,6.029,4330,1995,198.709,60.765,13.286
2017-11-10T02:34:18,42.805,6.029,4330,1995,198.643,60.744,13.286
2017-11-10T02:37:18,42.805,6.029,4330,1995,198.641,60.744,13.286
2017-11-10T02:40:18,42.805,6.029,4330,1995,198.669,60.753,13.286
2017-11-10T02:43:18,42.805,6.029,4330,1995,198.702,60.762,13.286
2017-11-10T02:46:18,42.805,6.029,4330,1995,198.697,60.761,13.286
2017-11-10T02:49:18,42.805,6.029,4330,1995,198.733,60.772,13.286
2017-11-10T02:52:18,42.805,6.029,4330,1995,198.721,60.768,13.286
2017-11-10T02:55:18,42.805,6.029,4330,1995,198.718,60.767,13.286
2017-11-10T02:58:18,42.805,6.029,4330,1995,198.720,60.768,13.286
2017-11-10T03:01:18,42.805,6.029,4330,1995,198.717,60.767,13.286
2017-11-10T03:04:18,42.805,6.029,4330,1995,198.767,60.782,13.286
2017-11-10T03:07:18,42.805,6.029,4330,1995,198.756,60.779,13.286
2017-11-10T03:10:18,42.805,6.029,4330,1995,198.773,60.784,13.286
2017-11-10T03:13:18,42.805,6.029,4330,1995,198.732,60.772,13.286
2017-11-10T03:16:18,42.805,6.029,4330,1995,198.728,60.771,13.286
2017-11-10T03:19:18,42.805,6.029,4330,1995,198.736,60.773,13.286
2017-11-10T03:22:18,42.805,6.029,4330,1995,198.735,60.773,13.286
2017-11-10T03:25:18,42.805,6.029,4330,1995,198.677,60.755,13.286
2017-11-10T03:28:18,42.805,6.029,4330,1995,198.665,60.751,13.286
2017-11-10T03:31:18,42.805,6.029,4330,1995,198.730,60.771,13.286
2017-11-10T03:34:18,42.805,6.029,4330,1995,198.706,60.764,13.286
2017-11-10T03:37:18,42.805,6.029,4330,1995,198.707,60.764,13.286
2017-11-10T03:40:18,42.805,6.029,4330,1995,198.667,60.752,13.286
2017-11-10T03:43:18,42.805,6.029,4330,1995,198.679,60.755,13.286
2017-11-10T03:46:18,42.805,6.029,4330,1995,198.731,60.771,13.286
2017-11-10T03:49:18,42.805,6.029,4330,1995,198.688,60.758,13.286
2017-11-10T03:52:18,42.805,6.029,4330,1995,198.670,60.753,13.286
2017-11-10T03:55:18,42.805,6.029,4330,1995,198.660,60.750,13.286
2017-11-10T03:58:18,42.805,6.029,4330,1995,198.713,60.766,13.286
2017-11-10T04:01:18,42.805,6.029,4330,1995,198.696,60.761,13.286
2017-11-10T04:04:18,42.805,6.029,4330,1995,198.694,60.760,13.286
2017-11-10T04:07:18,42.805,6.029,4330,1995,198.725,60.769,13.286
2017-11-10T04:10:18,42.805,6.029,4330,1995,198.731,60.771,13.286
2017-11-10T04:13:18,42.805,6.029,4330,1995,198.706,60.764,13.286
2017-11-10T04:16:18,42.805,6.029,4330,1995,198.705,60.763,13.286
2017-11-10T04:19:18,42.805,6.029,4330,1995,198.737,60.773,13.286
2017-11-10T04:22:18,42.805,6.029,4330,1995,198.670,60.753,13.286
2017-11-10T04:25:18,42.805,6.029,4330,1995,198.696,60.761,13.286
2017-11-10T04:28:18,42.805,6.029,4330,1995,198.695,60.760,13.286
2017-11-10T04:31:18,42.805,6.029,4330,1995,198.741,60.775,13.286
2017-11-10T04:34:18,42.805,6.029,4330,1995,198.681,60.756,13.286
2017-11-10T04:37:18,42.805,6.029,4330,1995,198.695,60.761,13.286
2017-11-10T04:40:18,42.805,6.029,4330,1995,198.699,60.762,13.286
2017-11-10T04:43:18,42.805,6.029,4330,1995,198.656,60.749,13.286
2017-11-10T04:46:18,42.805,6.029,4330,1995,198.666,60.752,13.286
2017-11-10T04:49:18,42.805,6.029,4330,1995,198.656,60.748,13.286
2017-11-10T04:52:18,42.805,6.029,4330,1995,198.714,60.766,13.286
2017-11-10T04:55:18,42.805,6.029,4330,1995,198.652,60.747,13.286
2017-11-10T04:58:18,42.805,6.029,4330,1995,198.689,60.759,13.286
2017-11-10T05:01:18,42.805,6.029,4330,1995,198.702,60.763,13.286
2017-11-10T05:04:18,42.805,6.029,4330,1995,198.697,60.761,13.286
2017-11-10T05:07:18,42.805,6.029,4330,1995,198.756,60.779,13.286
2017-11-10T05:10:18,42.805,6.029,4330,1995,198.715,60.767,13.286
2017-11-10T05:13:18,42.805,6.029,4330,1995,198.680,60.756,13.286
2017-11-10T05:16:18,42.805,6.029,4330,1995,198.727,60.770,13.286
2017-11-10T05:19:18,42.805,6.029,4330,1995,198.709,60.764,13.285
2017-11-10T05:22:18,42.805,6.029,4330,1995,198.762,60.781,13.286
2017-11-10T05:25:18,42.805,6.029,4330,1995,198.758,60.780,13.286
2017-11-10T05:28:18,42.805,6.029,4330,1995,198.737,60.773,13.285
2017-11-10T05:31:18,42.805,6.029,4330,1995,198.784,60.788,13.286
2017-11-10T05:34:18,42.805,6.029,4330,1995,198.724,60.769,13.286
2017-11-10T05:37:18,42.805,6.029,4330,1995,198.718,60.768,13.286
2017-11-10T05:40:18,42.805,6.029,4330,1995,198.697,60.761,13.286
2017-11-10T05:43:18,42.805,6.029,4330,1995,198.688,60.758,13.286
2017-11-10T05:46:18,42.805,6.029,4330,1995,198.732,60.772,13.286
2017-11-10T05:49:18,42.805,6.029,4330,1995,198.800,60.793,13.286
2017-11-10T05:52:18,42.805,6.029,4330,1995,198.739,60.774,13.286
2017-11-10T05:55:18,42.805,6.029,4330,1995,198.759,60.780,13.286
2017-11-10T05:58:18,42.805,6.029,4330,1995,198.681,60.756,13.286
2017-11-10T06:01:18,42.805,6.029,4330,1995,198.793,60.790,13.286
2017-11-10T06:04:18,42.805,6.029,4330,1995,198.737,60.773,13.286
2017-11-10T06:07:18,42.805,6.029,4330,1995,198.756,60.779,13.286
2017-11-10T06:10:18,42.805,6.029,4330,1995,198.776,60.785,13.286
2017-11-10T06:13:18,42.805,6.029,4330,1995,198.743,60.775,13.286
2017-11-10T06:16:18,42.805,6.029,4330,1995,198.715,60.767,13.286
2017-11-10T06:19:18,42.805,6.029,4330,1995,198.743,60.775,13.286
2017-11-10T06:22:18,42.805,6.029,4330,1995,198.758,60.780,13.286
2017-11-10T06:25:18,42.805,6.029,4330,1995,198.720,60.768,13.286
2017-11-10T06:28:18,42.805,6.029,4330,1995,198.716,60.767,13.286
2017-11-10T06:31:18,42.805,6.029,4330,1995,198.729,60.771,13.286
2017-11-10T06:34:18,42.805,6.029,4330,1995,198.689,60.758,13.286
2017-11-10T06:37:18,42.805,6.029,4330,1995,198.692,60.759,13.286
2017-11-10T06:40:18,42.805,6.029,4330,1995,198.712,60.766,13.286
2017-11-10T06:43:18,42.805,6.029,4330,1995,198.747,60.776,13.286
2017-11-10T06:46:18,42.805,6.029,4330,1995,198.759,60.780,13.286
2017-11-10T06:49:18,42.805,6.029,4330,1995,198.798,60.792,13.286
2017-11-10T06:52:18,42.805,6.029,4330,1995,198.793,60.790,13.285
2017-11-10T06:55:18,42.805,6.029,4330,1995,198.803,60.793,13.285
2017-11-10T06:58:18,42.805,6.029,4330,1995,198.759,60.780,13.285
2017-11-10T07:01:18,42.805,6.029,4330,1995,198.771,60.784,13.285
2017-11-10T07:04:18,42.805,6.029,4330,1995,198.821,60.799,13.286
2017-11-10T07:07:18,42.805,6.029,4330,1995,198.792,60.790,13.285
2017-11-10T07:10:18,42.805,6.029,4330,1995,198.859,60.810,13.286
2017-11-10T07:13:18,42.805,6.029,4330,1995,198.790,60.790,13.286
2017-11-10T07:16:18,42.805,6.029,4330,1995,198.851,60.808,13.285
2017-11-10T07:19:18,42.805,6.029,4330,1995,198.871,60.814,13.285
2017-11-10T07:22:18,42.805,6.029,4330,1995,198.899,60.823,13.286
2017-11-10T07:25:18,42.805,6.029,4330,1995,198.909,60.826,13.286
2017-11-10T07:28:18,42.805,6.029,4330,1995,198.843,60.805,13.285
2017-11-10T07:31:18,42.805,6.029,4330,1995,198.870,60.814,13.285
2017-11-10T07:34:18,42.805,6.029,4330,1995,198.927,60.831,13.286
2017-11-10T07:37:18,42.805,6.029,4330,1995,198.874,60.815,13.285
2017-11-10T07:40:18,42.805,6.029,4330,1995,198.922,60.830,13.286
2017-11-10T07:43:18,42.805,6.029,4330,1995,198.916,60.828,13.285
2017-11-10T07:46:18,42.805,6.029,4330,1995,198.953,60.839,13.286
2017-11-10T07:49:18,42.805,6.029,4330,1995,198.954,60.839,13.286
2017-11-10T07:52:18,42.805,6.029,4330,1995,198.921,60.829,13.285
2017-11-10T07:55:18,42.805,6.029,4330,1995,198.955,60.840,13.285
2017-11-10T07:58:18,42.805,6.029,4330,1995,198.946,60.837,13.285
2017-11-10T08:01:18,42.805,6.029,4330,1995,198.951,60.838,13.285
2017-11-10T08:04:18,42.805,6.029,4330,1995,198.975,60.846,13.285
2017-11-10T08:07:18,42.805,6.029,4330,1995,198.957,60.840,13.285
2017-11-10T08:10:18,42.805,6.029,4330,1995,198.955,60.840,13.286
2017-11-10T08:13:18,42.805,6.029,4330,1995,198.969,60.844,13.285
2017-11-10T08:16:18,42.805,6.029,4330,1995,198.917,60.828,13.285
2017-11-10T08:19:18,42.805,6.029,4330,1995,198.916,60.828,13.285
2017-11-10T08:22:18,42.805,6.029,4330,1995,198.909,60.826,13.286
2017-11-10T08:25:18,42.805,6.029,4330,1995,198.957,60.840,13.285
2017-11-10T08:28:18,42.805,6.029,4330,1995,198.953,60.839,13.285
2017-11-10T08:31:18,42.805,6.029,4330,1995,198.996,60.852,13.286
2017-11-10T08:34:18,42.805,6.029,4330,1995,198.965,60.843,13.285
2017-11-10T08:37:18,42.805,6.029,4330,1995,198.943,60.836,13.285
2017-11-10T08:40:18,42.805,6.029,4330,1995,198.958,60.841,13.285
2017-11-10T08:43:18,42.805,6.029,4330,1995,198.961,60.842,13.285
2017-11-10T08:46:18,42.805,6.029,4330,1995,198.961,60.842,13.286
2017-11-10T08:49:18,42.805,6.029,4330,1995,198.982,60.848,13.285
2017-11-10T08:52:18,42.805,6.029,4330,1995,199.006,60.855,13.285
2017-11-10T08:55:18,42.805,6.029,4330,1995,198.977,60.846,13.285
2017-11-10T08:58:18,42.805,6.029,4330,1995,198.962,60.842,13.285
2017-11-10T09:01:18,42.805,6.029,4330,1995,199.011,60.857,13.285
2017-11-10T09:04:18,42.805,6.029,4330,1995,198.981,60.848,13.286
2017-11-10T09:07:18,42.805,6.029,4330,1995,199.015,60.858,13.285
2017-11-10T09:10:18,42.805,6.029,4330,1995,198.990,60.850,13.285
2017-11-10T09:13:18,42.805,6.029,4330,1995,199.003,60.855,13.286
2017-11-10T09:16:18,42.805,6.029,4330,1995,198.984,60.849,13.285
2017-11-10T09:19:18,42.805,6.029,4330,1995,198.934,60.833,13.285
2017-11-10T09:22:18,42.805,6.029,4330,1995,198.956,60.840,13.285
2017-11-10T09:25:18,42.805,6.029,4330,1995,198.964,60.843,13.285
2017-11-10T09:28:18,42.805,6.029,4330,1995,198.978,60.847,13.285
2017-11-10T09:31:18,42.805,6.029,4330,1995,198.980,60.847,13.285
2017-11-10T09:34:18,42.805,6.029,4330,1995,198.949,60.838,13.285
2017-11-10T09:37:18,42.805,6.029,4330,1995,199.042,60.866,13.285
2017-11-10T09:40:18,42.805,6.029,4330,1995,199.020,60.860,13.285
2017-11-10T09:43:18,42.805,6.029,4330,1995,198.962,60.842,13.285
2017-11-10T09:46:18,42.805,6.029,4330,1995,198.973,60.845,13.285
2017-11-10T09:49:18,42.805,6.029,4330,1995,198.926,60.831,13.285
2017-11-10T09:52:18,42.805,6.029,4330,1995,198.891,60.820,13.285
2017-11-10T09:55:18,42.805,6.029,4330,1995,198.859,60.810,13.285
2017-11-10T09:58:18,42.805,6.029,4330,1995,198.885,60.818,13.285
2017-11-10T10:01:18,42.805,6.029,4330,1995,198.904,60.824,13.285
2017-11-10T10:04:18,42.805,6.029,4330,1995,198.895,60.821,13.285
2017-11-10T10:07:18,42.805,6.029,4330,1995,198.819,60.798,13.285
2017-11-10T10:10:18,42.805,6.029,4330,1995,198.837,60.804,13.285
2017-11-10T10:13:18,42.805,6.029,4330,1995,198.836,60.803,13.285
2017-11-10T10:16:18,42.805,6.029,4330,1995,198.797,60.791,13.285
2017-11-10T10:19:18,42.805,6.029,4330,1995,198.783,60.787,13.285
2017-11-10T10:22:18,42.805,6.029,4330,1995,198.822,60.799,13.285
2017-11-10T10:25:18,42.805,6.029,4330,1995,198.841,60.805,13.285
2017-11-10T10:28:18,42.805,6.029,4330,1995,198.787,60.788,13.285
2017-11-10T10:31:18,42.805,6.029,4330,1995,198.755,60.779,13.285
2017-11-10T10:34:18,42.805,6.029,4330,1995,198.739,60.774,13.285
2017-11-10T10:37:18,42.805,6.029,4330,1995,198.746,60.776,13.285
2017-11-10T10:40:18,42.805,6.029,4330,1995,198.769,60.782,13.285
2017-11-10T10:43:18,42.805,6.029,4330,1995,198.751,60.777,13.285
2017-11-10T10:46:18,42.805,6.029,4330,1995,198.790,60.789,13.285
2017-11-10T10:49:18,42.805,6.029,4330,1995,198.798,60.791,13.285
2017-11-10T10:52:18,42.805,6.029,4330,1995,198.782,60.787,13.285
2017-11-10T10:55:18,42.805,6.029,4330,1995,198.754,60.778,13.285
2017-11-10T10:58:18,42.805,6.029,4330,1995,198.804,60.793,13.285
2017-11-10T11:01:18,42.805,6.029,4330,1995,198.832,60.802,13.285
2017-11-10T11:04:18,42.805,6.029,4330,1995,198.877,60.816,13.285
2017-11-10T11:07:18,42.805,6.029,4330,1995,198.832,60.802,13.285
2017-11-10T11:10:18,42.805,6.029,4330,1995,198.776,60.785,13.285
2017-11-10T11:13:18,42.805,6.029,4330,1995,198.811,60.796,13.285
2017-11-10T11:16:18,42.805,6.029,4330,1995,198.840,60.805,13.285
2017-11-10T11:19:18,42.805,6.029,4330,1995,198.852,60.808,13.285
2017-11-10T11:22:18,42.805,6.029,4330,1995,198.856,60.809,13.285
2017-11-10T11:25:18,42.805,6.029,4330,1995,198.826,60.800,13.285
2017-11-10T11:28:18,42.805,6.029,4330,1995,198.837,60.803,13.285
2017-11-10T11:31:18,42.805,6.029,4330,1995,198.902,60.823,13.285
2017-11-10T11:34:18,42.805,6.029,4330,1995,198.861,60.811,13.285
2017-11-10T11:37:18,42.805,6.029,4330,1995,198.897,60.822,13.285
2017-11-10T11:40:18,42.805,6.029,4330,1995,198.939,60.835,13.285
2017-11-10T11:43:18,42.805,6.029,4330,1995,198.869,60.813,13.285
2017-11-10T11:46:18,42.805,6.029,4330,1995,198.922,60.830,13.285
2017-11-10T11:49:18,42.805,6.029,4330,1995,198.960,60.841,13.285
2017-11-10T11:52:18,42.805,6.029,4330,1995,198.928,60.831,13.285
2017-11-10T11:55:18,42.805,6.029,4330,1995,198.984,60.848,13.285
2017-11-10T11:58:18,42.805,6.029,4330,1995,198.957,60.840,13.285
2017-11-10T12:01:18,42.805,6.029,4330,1995,198.938,60.834,13.285
2017-11-10T12:04:18,42.805,6.029,4330,1995,198.983,60.848,13.285
2017-11-10T12:07:18,42.805,6.029,4330,1995,198.915,60.827,13.285
2017-11-10T12:10:18,42.805,6.029,4330,1995,198.913,60.827,13.285
2017-11-10T12:13:18,42.805,6.029,4330,1995,198.930,60.832,13.285
2017-11-10T12:16:18,42.805,6.029,4330,1995,198.916,60.827,13.285
2017-11-10T12:19:18,42.805,6.029,4330,1995,199.016,60.858,13.285
2017-11-10T12:22:18,42.805,6.029,4330,1995,198.979,60.847,13.285
2017-11-10T12:25:18,42.805,6.029,4330,1995,199.007,60.855,13.285
2017-11-10T12:28:18,42.805,6.029,4330,1995,198.942,60.836,13.285
2017-11-10T12:31:18,42.805,6.029,4330,1995,198.944,60.836,13.285
2017-11-10T12:34:18,42.805,6.029,4330,1995,198.977,60.846,13.285
2017-11-10T12:37:18,42.805,6.029,4330,1995,198.979,60.847,13.285
2017-11-10T12:40:18,42.805,6.029,4330,1995,198.954,60.839,13.285
2017-11-10T12:43:18,42.805,6.029,4330,1995,198.962,60.842,13.285
2017-11-10T12:46:18,42.805,6.029,4330,1995,198.928,60.831,13.285
2017-11-10T12:49:18,42.805,6.029,4330,1995,198.957,60.840,13.285
2017-11-10T12:52:18,42.805,6.029,4330,1995,199.011,60.856,13.285
2017-11-10T12:55:18,42.805,6.029,4330,1995,198.969,60.844,13.285
2017-11-10T12:58:17,42.805,6.029,4330,1995,199.007,60.855,13.285
2017-11-10T13:01:17,42.805,6.029,4330,1995,198.981,60.848,13.285
2017-11-10T13:04:17,42.805,6.029,4330,1995,199.090,60.881,13.285
2017-11-10T13:07:17,42.805,6.029,4330,1995,199.032,60.863,13.285
2017-11-10T13:10:17,42.805,6.029,4330,1995,199.073,60.875,13.285
2017-11-10T13:13:17,42.805,6.029,4330,1995,199.026,60.861,13.285
2017-11-10T13:16:17,42.805,6.029,4330,1995,198.946,60.837,13.285
2017-11-10T13:19:17,42.805,6.029,4330,1995,198.925,60.831,13.285
2017-11-10T13:22:17,42.805,6.029,4330,1995,198.930,60.832,13.285
2017-11-10T13:25:17,42.805,6.029,4330,1995,198.953,60.839,13.285
2017-11-10T13:28:17,42.805,6.029,4330,1995,198.994,60.852,13.285
2017-11-10T13:31:17,42.805,6.029,4330,1995,198.971,60.845,13.285
2017-11-10T13:34:17,42.805,6.029,4330,1995,198.890,60.820,13.285
2017-11-10T13:37:17,42.805,6.029,4330,1995,198.985,60.849,13.285
2017-11-10T13:40:17,42.805,6.029,4330,1995,198.959,60.841,13.285
2017-11-10T13:43:17,42.805,6.029,4330,1995,198.949,60.838,13.285
2017-11-10T13:46:17,42.805,6.029,4330,1995,198.952,60.839,13.285
2017-11-10T13:49:17,42.805,6.029,4330,1995,198.880,60.817,13.285
2017-11-10T13:52:17,42.805,6.029,4330,1995,198.835,60.803,13.285
2017-11-10T13:55:17,42.805,6.029,4330,1995,198.844,60.806,13.285
2017-11-10T13:58:17,42.805,6.029,4330,1995,198.847,60.807,13.285
2017-11-10T14:01:17,42.805,6.029,4330,1995,198.845,60.806,13.285
2017-11-10T14:04:17,42.805,6.029,4330,1995,198.896,60.822,13.285
2017-11-10T14:07:17,42.805,6.029,4330,1995,198.771,60.784,13.285
2017-11-10T14:10:17,42.805,6.029,4330,1995,198.759,60.780,13.285
2017-11-10T14:13:17,42.805,6.029,4330,1995,198.768,60.782,13.285
2017-11-10T14:16:17,42.805,6.029,4330,1995,198.775,60.785,13.285
2017-11-10T14:19:17,42.805,6.029,4330,1995,198.807,60.794,13.285
2017-11-10T14:22:17,42.805,6.029,4330,1995,198.723,60.769,13.285
2017-11-10T14:25:17,42.805,6.029,4330,1995,198.707,60.764,13.285
2017-11-10T14:28:17,42.805,6.029,4330,1995,198.716,60.767,13.285
2017-11-10T14:31:17,42.805,6.029,4330,1995,198.740,60.774,13.285
2017-11-10T14:34:17,42.805,6.029,4330,1995,198.751,60.777,13.285
2017-11-10T14:37:17,42.805,6.029,4330,1995,198.675,60.754,13.285
2017-11-10T14:40:17,42.805,6.029,4330,1995,198.681,60.756,13.285
2017-11-10T14:43:17,42.805,6.029,4330,1995,198.624,60.739,13.285
2017-11-10T14:46:17,42.805,6.029,4330,1995,198.613,60.735,13.285
2017-11-10T14:49:17,42.805,6.029,4330,1995,198.644,60.745,13.285
2017-11-10T14:52:17,42.805,6.029,4330,1995,198.620,60.737,13.285
2017-11-10T14:55:17,42.805,6.029,4330,1995,198.578,60.725,13.285
2017-11-10T14:58:17,42.805,6.029,4330,1995,198.526,60.709,13.286
2017-11-10T15:01:17,42.805,6.029,4330,1995,198.498,60.700,13.285
2017-11-10T15:04:17,42.805,6.029,4330,1995,198.573,60.723,13.285
2017-11-10T15:07:17,42.805,6.029,4330,1995,198.536,60.712,13.285
2017-11-10T15:10:17,42.805,6.029,4330,1995,198.484,60.696,13.285
2017-11-10T15:13:17,42.805,6.029,4330,1995,198.425,60.678,13.285
2017-11-10T15:16:17,42.805,6.029,4330,1995,198.527,60.709,13.286
2017-11-10T15:19:17,42.805,6.029,4330,1995,198.412,60.674,13.285
2017-11-10T15:22:17,42.805,6.029,4330,1995,198.453,60.686,13.286
2017-11-10T15:25:17,42.805,6.029,4330,1995,198.441,60.683,13.286
2017-11-10T15:28:17,42.805,6.029,4330,1995,198.453,60.686,13.286
2017-11-10T15:31:17,42.805,6.029,4330,1995,198.401,60.670,13.285
2017-11-10T15:34:17,42.805,6.029,4330,1995,198.493,60.699,13.285
2017-11-10T15:37:17,42.805,6.029,4330,1995,198.424,60.677,13.285
2017-11-10T15:40:17,42.805,6.029,4330,1995,198.484,60.696,13.285
2017-11-10T15:43:17,42.805,6.029,4330,1995,198.465,60.690,13.285
2017-11-10T15:46:17,42.805,6.029,4330,1995,198.499,60.700,13.286
2017-11-10T15:49:17,42.805,6.029,4330,1995,198.446,60.684,13.286
2017-11-10T15:52:17,42.805,6.029,4330,1995,198.409,60.673,13.285
2017-11-10T15:55:17,42.805,6.029,4330,1995,198.457,60.687,13.285
2017-11-10T15:58:17,42.805,6.029,4330,1995,198.433,60.680,13.285
2017-11-10T16:01:17,42.805,6.029,4330,1995,198.484,60.696,13.285
2017-11-10T16:04:17,42.805,6.029,4330,1995,198.434,60.680,13.285
2017-11-10T16:07:17,42.805,6.029,4330,1995,198.528,60.709,13.285
2017-11-10T16:10:17,42.805,6.029,4330,1995,198.518,60.706,13.286
2017-11-10T16:13:17,42.805,6.029,4330,1995,198.488,60.697,13.286
2017-11-10T16:16:17,42.805,6.029,4330,1995,198.427,60.678,13.285
2017-11-10T16:19:17,42.805,6.029,4330,1995,198.426,60.678,13.285
2017-11-10T16:22:17,42.805,6.029,4330,1995,198.463,60.689,13.285
2017-11-10T16:25:17,42.805,6.029,4330,1995,198.506,60.702,13.285
2017-11-10T16:28:17,42.805,6.029,4330,1995,198.513,60.705,13.285
2017-11-10T16:31:17,42.805,6.029,4330,1995,198.545,60.714,13.286
2017-11-10T16:34:17,42.805,6.029,4330,1995,198.491,60.698,13.285
2017-11-10T16:37:17,42.805,6.029,4330,1995,198.556,60.718,13.286
2017-11-10T16:40:17,42.805,6.029,4330,1995,198.462,60.689,13.285
2017-11-10T16:43:17,42.805,6.029,4330,1995,198.542,60.714,13.285
2017-11-10T16:46:17,42.805,6.029,4330,1995,198.508,60.703,13.286
2017-11-10T16:49:17,42.805,6.029,4330,1995,198.545,60.714,13.285
2017-11-10T16:52:17,42.805,6.029,4330,1995,198.548,60.715,13.286
2017-11-10T16:55:17,42.805,6.029,4330,1995,198.490,60.698,13.285
2017-11-10T16:58:17,42.805,6.029,4330,1995,198.543,60.714,13.285
2017-11-10T17:01:17,42.805,6.029,4330,1995,198.555,60.717,13.285
2017-11-10T17:04:17,42.805,6.029,4330,1995,198.546,60.715,13.285
2017-11-10T17:07:17,42.805,6.029,4330,1995,198.560,60.719,13.285
2017-11-10T17:10:17,42.805,6.029,4330,1995,198.573,60.723,13.285
2017-11-10T17:13:17,42.805,6.029,4330,1995,198.630,60.740,13.285
2017-11-10T17:16:17,42.805,6.029,4330,1995,198.549,60.716,13.285
2017-11-10T17:19:17,42.805,6.029,4330,1995,198.550,60.716,13.285
2017-11-10T17:22:17,42.805,6.029,4330,1995,198.583,60.726,13.286
2017-11-10T17:25:17,42.805,6.029,4330,1995,198.611,60.735,13.285
2017-11-10T17:28:17,42.805,6.029,4330,1995,198.631,60.741,13.285
2017-11-10T17:31:17,42.805,6.029,4330,1995,198.698,60.761,13.286
2017-11-10T17:34:17,42.805,6.029,4330,1995,198.688,60.758,13.285
2017-11-10T17:37:17,42.805,6.029,4330,1995,198.767,60.782,13.285
2017-11-10T17:40:17,42.805,6.029,4330,1995,198.697,60.761,13.285
2017-11-10T17:43:17,42.805,6.029,4330,1995,198.758,60.779,13.285
2017-11-10T17:46:17,42.805,6.029,4330,1995,198.721,60.768,13.285
2017-11-10T17:49:17,42.805,6.029,4330,1995,198.725,60.769,13.285
2017-11-10T17:52:17,42.805,6.029,4330,1995,198.753,60.778,13.285
2017-11-10T17:55:17,42.805,6.029,4330,1995,198.712,60.765,13.285
2017-11-10T17:58:17,42.805,6.029,4330,1995,198.830,60.802,13.285
2017-11-10T18:01:17,42.805,6.029,4330,1995,198.817,60.797,13.285
2017-11-10T18:04:17,42.805,6.029,4330,1995,198.807,60.794,13.285
2017-11-10T18:07:17,42.805,6.029,4330,1995,198.862,60.811,13.285